QPF
0.00 0.00 0.00 0.00 0.00 0.00 0.00 0.00 0.00 0.00 0.00 0.00 0.00 0.00 0.00 0.00 0.00 0.00 0.00 0.00 0.00 0.00 0.00 0.00 0.00 0.00 0.00 0.00 0.00 0.00 0.00 0.00 0.00 0.00 0.00 0.00 0.00 0.00 0.00 0.00 0.00 0.00
0.00 0.00 0.00 0.00 0.00 0.00 0.00 0.00 0.00 0.00 0.00 0.00 0.00 0.00 0.00 0.00 0.00 0.00 0.00 0.00 0.00 0.00 0.00 0.00 0.00 0.00 0.00 0.00 0.00 0.00 0.00 0.00 0.00 0.00 0.00 0.00 0.00 0.00 0.00 0.00 0.00 0.00
0.00 0.00 0.00 0.00 0.00 0.00 0.00 0.00 0.00 0.00 0.00 0.00 0.00 0.00 0.00 0.00 0.00 0.00 0.00 0.00 0.00 0.00 0.00 0.00 0.00 0.00 0.00 0.00 0.00 0.00 0.00 0.00 0.00 0.00 0.00 0.00 0.00 0.00 0.00 0.00 0.00 0.00
0.00 0.00 0.00 0.00 0.00 0.00 0.00 0.00 0.00 0.00 0.00 0.00 0.00 0.00 0.00 0.00 0.00 0.00 0.00 0.00 0.00 0.00 0.00 0.00 0.00 0.00 0.00 0.00 0.00 0.00 0.00 0.00 0.00 0.00 0.00 0.00 0.00 0.00 0.00 0.00 0.00 0.00
0.00 0.00 0.00 0.00 0.00 0.00 0.00 0.00 0.00 0.00 0.00 0.00 0.00 0.00 0.00 0.00 0.00 0.00 0.00 0.00 0.00 0.00 0.00 0.00 0.00 0.00 0.00 0.00 0.00 0.00 0.00 0.00 0.00 0.00 0.00 0.00 0.00 0.00 0.00 0.00 0.00 0.00
0.00 0.00 0.00 0.00 0.00 0.00 0.00 0.00 0.00 0.00 0.00 0.00 0.00 0.00 0.00 0.00 0.00 0.00 0.00 0.00 0.00 0.00 0.00 0.00 0.00 0.00 0.00 0.00 0.00 0.00 0.00 0.00 0.00 0.00 0.00 0.00 0.00 0.00 0.00 0.00 0.00 0.00
0.00 0.00 0.00 0.00 0.00 0.00 0.00 0.00 0.00 0.00 0.00 0.00 0.00 0.00 0.00 0.00 0.00 0.00 0.00 0.00 0.00 0.00 0.00 0.00 0.00 0.00 0.00 0.00 0.00 0.00 0.00 0.00 0.00 0.00 0.00 0.00 0.00 0.00 0.00 0.00 0.00 0.00
0.00 0.00 0.00 0.00 0.00 0.00 0.00 0.00 0.00 0.00 0.00 0.00 0.00 0.00 0.00 0.00 0.00 0.00 0.00 0.00 0.00 0.00 0.00 0.00 0.00 0.00 0.00 0.00 0.00 0.00 0.00 0.00 0.00 0.00 0.00 0.00 0.00 0.00 0.00 0.00 0.00 0.00
0.00 0.00 0.00 0.00 0.00 0.00 0.00 0.00 0.00 0.00 0.00 0.00 0.00 0.00 0.00 0.00 0.00 0.00 0.00 0.00 0.00 0.00 0.00 0.00 0.00 0.00 0.00 0.00 0.00 0.00 0.00 0.00 0.00 0.00 0.00 0.00 0.00 0.00 0.00 0.00 0.00 0.00
0.00 0.00 0.00 0.00 0.00 0.00 0.00 0.00 0.00 0.00 0.00 0.00 0.00 0.00 0.00 0.00 0.00 0.00 0.00 0.00 0.00 0.00 0.00 0.00 0.00 0.00 0.00 0.00 0.00 0.00 0.00 0.00 0.00 0.00 0.00 0.00 0.00 0.00 0.00 0.00 0.00 0.00
0.00 0.00 0.00 0.00 0.00 0.00 0.00 0.00 0.00 0.00 0.00 0.00 0.00 0.00 0.00 0.00 0.00 0.00 0.00 0.00 0.00 0.00 0.00 0.00 0.00 0.00 0.00 0.00 0.00 0.00 0.00 0.00 0.00 0.00 0.00 0.00 0.00 0.00 0.00 0.00 0.00 0.00
0.00 0.00 0.00 0.00 0.00 0.00 0.00 0.00 0.00 0.00 0.00 0.00 0.00 0.00 0.00 0.00 0.00 0.00 0.00 0.00 0.00 0.00 0.00 0.00 0.00 0.00 0.00 0.00 0.00 0.00 0.00 0.00 0.00 0.00 0.00 0.00 0.00 0.00 0.00 0.00 0.00 0.00
0.02 0.01 0.01 0.03 0.04 0.00 0.00 0.00 0.00 0.00 0.00 0.00 0.00 0.00 0.00 0.00 0.00 0.00 0.00 0.00 0.00 0.00 0.00 0.00 0.00 0.00 0.00 0.00 0.00 0.00 0.00 0.00 0.00 0.00 0.00 0.00 0.00 0.00 0.00 0.00 0.00 0.00
0.83 0.43 0.84 0.76 0.35 0.03 0.00 0.00 0.00 0.00 0.00 0.00 0.00 0.00 0.00 0.00 0.00 0.00 0.00 0.00 0.00 0.00 0.00 0.00 0.00 0.00 0.00 0.00 0.00 0.00 0.00 0.00 0.00 0.00 0.00 0.00 0.00 0.00 0.00 0.00 0.00 0.00
0.42 0.06 0.20 0.03 0.04 0.05 0.05 0.01 0.01 0.01 0.00 0.00 0.00 0.00 0.00 0.00 0.00 0.00 0.00 0.00 0.00 0.00 0.00 0.00 0.00 0.00 0.00 0.00 0.00 0.00 0.00 0.00 0.00 0.00 0.00 0.00 0.00 0.00 0.00 0.00 0.00 0.00
0.27 0.34 0.26 0.19 0.19 0.16 0.17 0.28 0.04 0.04 0.02 0.01 0.00 0.00 0.00 0.00 0.00 0.00 0.00 0.00 0.00 0.00 0.00 0.00 0.00 0.00 0.00 0.00 0.00 0.00 0.00 0.00 0.00 0.00 0.00 0.00 0.00 0.00 0.00 0.00 0.00 0.00
0.25 0.32 0.50 0.43 0.30 0.20 0.34 0.36 0.15 0.06 0.01 0.01 0.01 0.01 0.00 0.01 0.00 0.00 0.00 0.00 0.00 0.00 0.00 0.00 0.00 0.00 0.00 0.00 0.00 0.00 0.00 0.00 0.00 0.00 0.00 0.00 0.00 0.00 0.00 0.00 0.00 0.00
0.61 0.38 0.04 0.02 0.04 0.07 0.12 0.11 0.06 0.05 0.02 0.00 0.00 0.00 0.00 0.00 0.00 0.00 0.00 0.00 0.00 0.00 0.00 0.00 0.00 0.00 0.00 0.00 0.00 0.00 0.00 0.00 0.00 0.00 0.00 0.00 0.00 0.00 0.00 0.00 0.00 0.00
0.12 0.13 0.33 0.09 0.01 0.00 0.00 0.01 0.00 0.00 0.00 0.00 0.00 0.00 0.00 0.00 0.00 0.00 0.00 0.00 0.00 0.00 0.00 0.00 0.00 0.00 0.00 0.00 0.00 0.00 0.00 0.00 0.00 0.00 0.00 0.00 0.00 0.00 0.00 0.00 0.00 0.00
0.00 0.01 0.08 0.20 0.12 0.01 0.00 0.00 0.00 0.00 0.00 0.00 0.00 0.00 0.00 0.00 0.00 0.00 0.00 0.00 0.00 0.00 0.00 0.00 0.00 0.00 0.00 0.00 0.00 0.00 0.00 0.00 0.00 0.00 0.00 0.00 0.00 0.00 0.00 0.00 0.00 0.00
0.00 0.00 0.00 0.01 0.04 0.15 0.10 0.00 0.00 0.00 0.00 0.00 0.00 0.00 0.00 0.00 0.00 0.00 0.00 0.00 0.00 0.00 0.00 0.00 0.00 0.00 0.00 0.00 0.00 0.00 0.00 0.00 0.00 0.00 0.00 0.00 0.00 0.00 0.00 0.00 0.00 0.00
0.00 0.00 0.00 0.00 0.05 0.09 0.09 0.02 0.00 0.00 0.00 0.00 0.00 0.00 0.00 0.00 0.00 0.00 0.00 0.00 0.00 0.00 0.00 0.00 0.00 0.00 0.00 0.00 0.00 0.00 0.00 0.00 0.00 0.00 0.00 0.00 0.00 0.00 0.00 0.00 0.00 0.00
0.00 0.00 0.00 0.00 0.00 0.01 0.14 0.00 0.00 0.00 0.00 0.00 0.00 0.00 0.00 0.00 0.00 0.00 0.00 0.00 0.00 0.00 0.00 0.00 0.00 0.00 0.00 0.00 0.00 0.00 0.00 0.00 0.00 0.00 0.00 0.00 0.00 0.00 0.00 0.00 0.00 0.00
0.00 0.00 0.00 0.00 0.00 0.01 0.02 0.00 0.00 0.00 0.00 0.00 0.00 0.00 0.00 0.00 0.00 0.00 0.00 0.00 0.00 0.00 0.00 0.00 0.00 0.00 0.00 0.00 0.00 0.01 0.00 0.00 0.00 0.00 0.00 0.00 0.00 0.00 0.00 0.00 0.00 0.00
0.00 0.00 0.01 0.00 0.00 0.01 0.01 0.00 0.00 0.01 0.00 0.00 0.00 0.00 0.00 0.00 0.02 0.01 0.01 0.01 0.01 0.04 0.02 0.01 0.00 0.00 0.00 0.00 0.00 0.00 0.00 0.00 0.00 0.00 0.00 0.00 0.00 0.00 0.00 0.00 0.00 0.00
0.00 0.00 0.00 0.00 0.01 0.00 0.00 0.00 0.00 0.00 0.00 0.00 0.00 0.00 0.00 0.00 0.00 0.00 0.02 0.02 0.00 0.03 0.19 0.13 0.02 0.02 0.02 0.01 0.00 0.00 0.00 0.00 0.00 0.00 0.00 0.00 0.00 0.00 0.00 0.00 0.00 0.00
MSLP
1017.02 1017.14 1017.42 1017.70 1017.90 1018.14 1018.46 1018.74 1018.94 1019.14 1019.22 1019.38 1019.58 1019.78 1019.82 1020.02 1020.18 1020.26 1020.42 1020.50 1020.58 1020.70 1020.78 1020.86 1020.94 1021.02 1021.10 1021.14 1021.18 1021.14 1021.22 1021.46 1021.58 1021.58 1021.62 1021.62 1021.66 1021.78 1021.90 1021.98 1021.94 1021.82
1016.98 1017.14 1017.34 1017.62 1017.94 1018.18 1018.38 1018.50 1018.74 1018.94 1019.26 1019.42 1019.54 1019.78 1019.90 1020.06 1020.26 1020.30 1020.46 1020.62 1020.70 1020.78 1020.86 1020.94 1021.02 1021.06 1021.14 1021.18 1021.30 1021.30 1021.34 1021.46 1021.62 1021.62 1021.70 1021.74 1021.82 1021.86 1021.98 1022.02 1021.98 1021.94
1016.94 1017.18 1017.42 1017.70 1017.94 1018.26 1018.46 1018.66 1018.82 1018.98 1019.18 1019.46 1019.62 1019.74 1019.98 1020.10 1020.30 1020.38 1020.46 1020.54 1020.70 1020.90 1020.98 1020.98 1021.06 1021.10 1021.14 1021.22 1021.34 1021.38 1021.42 1021.54 1021.66 1021.70 1021.70 1021.86 1021.94 1021.94 1022.06 1022.06 1022.02 1022.10
1016.98 1017.10 1017.34 1017.58 1017.82 1018.18 1018.46 1018.74 1019.02 1019.18 1019.34 1019.54 1019.66 1019.82 1019.94 1020.14 1020.26 1020.42 1020.58 1020.66 1020.74 1020.90 1021.02 1021.02 1021.06 1021.10 1021.10 1021.26 1021.30 1021.42 1021.58 1021.62 1021.70 1021.74 1021.86 1021.94 1022.02 1022.06 1022.14 1022.06 1022.10 1022.14
1016.98 1017.18 1017.34 1017.54 1017.78 1018.02 1018.30 1018.62 1018.90 1019.10 1019.30 1019.42 1019.66 1019.82 1019.94 1020.14 1020.30 1020.38 1020.58 1020.70 1020.78 1020.94 1021.02 1021.10 1021.10 1021.18 1021.18 1021.26 1021.34 1021.54 1021.66 1021.74 1021.82 1021.70 1021.74 1021.98 1022.06 1022.10 1022.18 1022.10 1022.18 1022.30
1017.06 1017.18 1017.38 1017.62 1017.86 1018.10 1018.30 1018.42 1018.66 1018.94 1019.18 1019.42 1019.58 1019.66 1019.82 1019.98 1020.14 1020.30 1020.46 1020.66 1020.78 1020.90 1021.02 1021.06 1021.14 1021.22 1021.18 1021.30 1021.46 1021.62 1021.66 1021.70 1021.82 1021.70 1021.74 1021.94 1022.06 1022.14 1022.14 1022.18 1022.22 1022.34
1017.18 1017.38 1017.62 1017.74 1017.90 1018.02 1018.14 1018.34 1018.62 1018.82 1019.02 1019.18 1019.50 1019.70 1019.78 1019.98 1020.06 1020.18 1020.34 1020.54 1020.70 1020.82 1020.90 1021.06 1021.14 1021.30 1021.30 1021.38 1021.50 1021.70 1021.74 1021.78 1021.74 1021.74 1021.86 1022.02 1022.06 1022.18 1022.14 1022.14 1022.18 1022.34
1017.14 1017.26 1017.50 1017.66 1017.90 1018.02 1018.18 1018.38 1018.58 1018.78 1018.94 1019.22 1019.46 1019.62 1019.66 1019.78 1019.94 1020.18 1020.34 1020.46 1020.58 1020.74 1020.94 1021.06 1021.14 1021.26 1021.34 1021.34 1021.50 1021.70 1021.86 1021.86 1021.86 1021.86 1021.98 1022.18 1022.14 1022.22 1022.30 1022.34 1022.38 1022.34
1017.02 1017.26 1017.46 1017.70 1017.86 1018.02 1018.22 1018.34 1018.58 1018.78 1018.94 1019.14 1019.34 1019.54 1019.62 1019.66 1019.90 1020.14 1020.34 1020.42 1020.58 1020.82 1021.06 1021.18 1021.18 1021.30 1021.34 1021.38 1021.50 1021.62 1021.78 1021.94 1021.98 1021.98 1022.06 1022.18 1022.26 1022.34 1022.30 1022.34 1022.46 1022.58
1016.94 1017.10 1017.38 1017.58 1017.82 1017.94 1018.18 1018.38 1018.58 1018.82 1018.94 1019.06 1019.22 1019.46 1019.62 1019.78 1019.98 1020.18 1020.38 1020.54 1020.70 1020.94 1021.10 1021.26 1021.30 1021.34 1021.38 1021.38 1021.46 1021.62 1021.78 1021.94 1022.06 1022.14 1022.14 1022.14 1022.18 1022.30 1022.34 1022.38 1022.46 1022.66
1016.82 1016.98 1017.18 1017.42 1017.58 1017.82 1018.22 1018.50 1018.74 1018.86 1019.02 1019.14 1019.34 1019.54 1019.62 1019.90 1020.22 1020.30 1020.50 1020.58 1020.82 1020.94 1021.10 1021.26 1021.30 1021.30 1021.42 1021.54 1021.66 1021.70 1021.82 1021.98 1022.10 1022.18 1022.26 1022.30 1022.30 1022.34 1022.42 1022.38 1022.50 1022.62
1016.86 1016.94 1017.10 1017.34 1017.62 1017.94 1018.30 1018.62 1018.86 1019.02 1019.18 1019.26 1019.34 1019.58 1019.86 1020.06 1020.22 1020.38 1020.42 1020.54 1020.62 1020.74 1020.90 1021.06 1021.18 1021.26 1021.34 1021.46 1021.62 1021.78 1021.94 1022.10 1022.22 1022.30 1022.34 1022.38 1022.50 1022.46 1022.46 1022.46 1022.54 1022.70
1016.86 1016.98 1017.30 1017.82 1018.30 1018.62 1018.74 1018.90 1019.10 1019.22 1019.26 1019.38 1019.46 1019.66 1020.06 1020.30 1020.38 1020.42 1020.42 1020.42 1020.54 1020.66 1020.86 1021.06 1021.18 1021.26 1021.38 1021.54 1021.58 1021.74 1021.90 1022.10 1022.30 1022.38 1022.50 1022.58 1022.62 1022.62 1022.62 1022.62 1022.58 1022.66
1017.46 1017.58 1018.02 1018.10 1018.10 1018.58 1018.94 1019.10 1019.30 1019.42 1019.42 1019.46 1019.50 1019.70 1019.94 1020.14 1020.38 1020.50 1020.58 1020.58 1020.58 1020.62 1020.78 1020.98 1021.14 1021.30 1021.38 1021.50 1021.54 1021.70 1021.90 1022.14 1022.30 1022.46 1022.58 1022.70 1022.82 1022.78 1022.78 1022.74 1022.74 1022.74
1017.86 1017.98 1018.34 1018.38 1018.22 1018.46 1018.70 1019.02 1019.22 1019.46 1019.58 1019.66 1019.70 1019.78 1019.94 1020.10 1020.30 1020.50 1020.66 1020.78 1020.86 1020.82 1020.90 1021.02 1021.14 1021.30 1021.38 1021.50 1021.58 1021.74 1021.82 1022.06 1022.26 1022.42 1022.58 1022.74 1022.90 1022.94 1022.94 1022.86 1022.82 1022.82
1017.94 1018.18 1018.30 1018.58 1018.86 1018.86 1018.86 1018.90 1019.34 1019.58 1019.86 1019.90 1019.90 1019.90 1020.06 1020.26 1020.50 1020.66 1020.78 1020.86 1020.98 1021.10 1021.18 1021.34 1021.46 1021.46 1021.54 1021.58 1021.54 1021.50 1021.74 1021.94 1022.18 1022.34 1022.46 1022.58 1022.74 1022.90 1023.02 1023.02 1022.94 1022.90
1017.98 1018.22 1018.42 1018.62 1018.70 1018.78 1019.22 1019.38 1019.54 1019.66 1020.14 1020.34 1020.22 1020.14 1020.10 1020.30 1020.58 1020.82 1020.98 1021.02 1020.98 1020.98 1021.18 1021.38 1021.50 1021.62 1021.90 1021.82 1021.78 1021.74 1021.70 1021.82 1021.98 1022.18 1022.30 1022.42 1022.50 1022.58 1022.70 1022.82 1022.90 1022.94
1018.38 1018.34 1018.46 1018.78 1018.90 1019.02 1019.14 1019.58 1019.62 1019.70 1020.22 1020.26 1020.26 1020.22 1020.14 1020.38 1020.62 1020.82 1020.94 1020.98 1021.02 1021.02 1021.10 1021.30 1021.38 1021.70 1021.90 1022.10 1022.10 1022.02 1021.98 1021.82 1021.86 1021.98 1022.18 1022.22 1022.26 1022.30 1022.34 1022.54 1022.70 1022.86
1018.46 1018.46 1018.62 1018.78 1018.94 1019.06 1019.46 1019.86 1019.90 1019.94 1020.06 1020.10 1020.14 1020.22 1020.38 1020.58 1020.74 1020.82 1020.78 1020.78 1020.82 1020.94 1021.14 1021.26 1021.22 1021.74 1021.94 1022.22 1022.30 1022.34 1022.34 1022.18 1021.78 1021.86 1021.98 1022.02 1022.10 1022.14 1022.18 1022.30 1022.46 1022.62
1018.38 1018.62 1019.10 1019.38 1019.58 1019.50 1019.58 1019.78 1019.94 1020.06 1020.14 1020.26 1020.46 1020.66 1020.70 1020.86 1020.86 1020.78 1020.78 1020.78 1020.86 1020.90 1021.06 1021.26 1021.18 1021.82 1022.06 1022.30 1022.46 1022.54 1022.62 1022.58 1022.14 1022.10 1022.06 1022.02 1022.06 1022.10 1022.18 1022.26 1022.38 1022.46
1019.26 1019.22 1019.38 1019.62 1019.70 1019.74 1019.82 1019.94 1020.10 1020.30 1020.46 1020.62 1020.58 1020.62 1020.70 1020.74 1020.70 1020.70 1020.78 1020.82 1020.90 1020.94 1021.02 1021.14 1021.34 1022.10 1022.38 1022.58 1022.66 1022.70 1022.74 1022.70 1022.38 1022.30 1022.22 1022.18 1022.14 1022.18 1022.22 1022.22 1022.26 1022.34
1020.14 1020.06 1020.06 1019.98 1020.14 1020.34 1020.34 1020.42 1020.58 1020.66 1020.66 1020.58 1020.46 1020.54 1020.66 1020.62 1020.58 1020.54 1020.66 1020.82 1020.90 1020.94 1020.98 1021.02 1021.54 1022.30 1022.62 1022.78 1022.94 1022.94 1022.94 1022.58 1022.30 1022.30 1022.18 1022.10 1022.06 1022.14 1022.18 1022.10 1022.06 1022.10
1020.78 1020.70 1020.62 1020.50 1020.50 1020.54 1020.66 1020.74 1020.74 1020.90 1021.02 1020.78 1020.46 1020.62 1020.54 1020.50 1020.62 1020.74 1020.78 1020.78 1020.86 1020.86 1020.90 1021.10 1021.26 1022.02 1022.30 1022.54 1022.78 1022.90 1022.70 1022.22 1022.22 1022.18 1022.22 1022.18 1022.06 1021.94 1021.94 1021.90 1021.90 1021.90
1021.38 1021.18 1021.18 1021.22 1021.22 1021.30 1021.34 1021.30 1021.14 1021.18 1021.22 1021.14 1020.82 1020.86 1021.02 1021.14 1020.94 1020.86 1020.94 1021.02 1021.10 1021.22 1021.46 1021.42 1021.50 1022.34 1022.62 1022.70 1022.78 1022.94 1022.82 1022.38 1022.22 1022.10 1022.06 1022.02 1021.86 1021.78 1021.74 1021.74 1021.70 1022.02
1022.14 1021.98 1021.86 1021.82 1021.82 1021.94 1021.86 1021.66 1021.70 1021.90 1021.86 1021.62 1021.30 1021.10 1021.22 1021.26 1021.34 1021.30 1021.54 1021.78 1021.90 1021.94 1022.14 1021.94 1021.90 1022.38 1022.74 1022.86 1023.02 1023.10 1023.10 1022.70 1022.46 1022.06 1021.98 1021.78 1021.66 1021.58 1021.54 1021.50 1021.50 1021.70
1022.70 1022.58 1022.50 1022.46 1022.42 1022.30 1022.34 1022.34 1022.14 1022.02 1022.10 1022.26 1022.26 1021.78 1021.54 1021.50 1021.50 1021.50 1021.74 1022.06 1022.14 1022.02 1022.22 1022.30 1022.06 1022.26 1022.86 1023.14 1023.30 1023.38 1023.38 1023.02 1022.54 1021.98 1021.50 1021.38 1021.34 1021.26 1021.18 1021.14 1021.26 1021.30
Thickness
5626 5626 5626 5624 5624 5623 5622 5621 5620 5620 5620 5620 5620 5620 5621 5620 5620 5619 5619 5618 5618 5617 5616 5615 5615 5615 5615 5614 5614 5614 5614 5613 5613 5613 5614 5614 5614 5614 5614 5613 5613 5613
5626 5626 5625 5623 5622 5622 5621 5620 5619 5619 5618 5618 5618 5618 5619 5618 5617 5617 5616 5615 5615 5614 5614 5613 5613 5613 5612 5612 5612 5612 5612 5611 5612 5612 5612 5612 5612 5611 5610 5611 5611 5611
5626 5624 5624 5622 5621 5620 5619 5618 5617 5618 5617 5616 5617 5616 5616 5616 5615 5614 5613 5613 5612 5611 5610 5610 5610 5610 5610 5610 5610 5610 5610 5609 5609 5610 5610 5609 5609 5608 5608 5608 5609 5609
5624 5623 5623 5622 5621 5619 5618 5617 5616 5616 5615 5614 5614 5615 5614 5614 5613 5612 5611 5610 5610 5609 5608 5608 5608 5608 5608 5608 5608 5608 5608 5607 5607 5607 5607 5607 5606 5606 5606 5606 5607 5606
5622 5622 5622 5620 5620 5619 5618 5617 5616 5614 5614 5613 5612 5613 5612 5611 5611 5610 5609 5608 5608 5606 5606 5606 5606 5606 5606 5606 5606 5606 5605 5605 5604 5605 5605 5604 5604 5604 5604 5604 5604 5603
5619 5619 5619 5618 5618 5618 5617 5617 5616 5614 5613 5612 5611 5610 5611 5610 5609 5608 5607 5606 5605 5605 5604 5604 5604 5604 5604 5604 5603 5603 5603 5603 5602 5603 5603 5602 5601 5601 5601 5601 5601 5601
5616 5616 5616 5615 5615 5616 5617 5616 5614 5613 5612 5610 5609 5609 5608 5608 5607 5606 5606 5604 5604 5603 5603 5602 5603 5602 5602 5602 5601 5600 5600 5599 5600 5600 5599 5599 5598 5598 5598 5598 5599 5598
5614 5614 5614 5614 5614 5614 5614 5614 5613 5612 5610 5608 5607 5606 5607 5606 5606 5605 5603 5603 5602 5601 5601 5600 5600 5599 5599 5600 5598 5597 5596 5596 5596 5596 5595 5595 5595 5594 5595 5595 5595 5595
5612 5612 5612 5611 5611 5612 5611 5612 5611 5610 5609 5607 5606 5605 5605 5604 5604 5602 5601 5600 5599 5598 5597 5597 5597 5597 5597 5596 5596 5595 5594 5592 5592 5592 5592 5591 5592 5591 5592 5592 5591 5591
5611 5611 5610 5609 5609 5609 5608 5608 5608 5607 5606 5605 5604 5602 5602 5601 5600 5599 5598 5597 5596 5595 5594 5594 5594 5594 5593 5593 5593 5592 5591 5590 5589 5589 5589 5589 5589 5589 5589 5589 5589 5588
5610 5609 5609 5608 5608 5606 5605 5603 5603 5603 5602 5602 5601 5599 5598 5598 5596 5595 5595 5594 5593 5593 5592 5591 5591 5591 5590 5590 5589 5589 5588 5587 5586 5587 5586 5586 5587 5586 5586 5587 5586 5585
5607 5607 5606 5604 5603 5601 5600 5599 5598 5597 5597 5598 5597 5596 5595 5593 5593 5592 5592 5592 5591 5591 5590 5589 5588 5588 5588 5587 5586 5586 5585 5584 5583 5583 5583 5583 5583 5583 5583 5583 5584 5583
5603 5603 5601 5597 5596 5594 5594 5595 5594 5593 5593 5594 5594 5593 5591 5590 5590 5590 5591 5591 5590 5590 5588 5587 5586 5585 5585 5584 5584 5584 5583 5581 5580 5580 5580 5579 5579 5580 5580 5580 5581 5581
5597 5596 5593 5592 5594 5592 5590 5590 5589 5589 5589 5590 5591 5590 5589 5589 5588 5587 5588 5587 5587 5588 5586 5585 5584 5583 5582 5582 5582 5581 5580 5579 5577 5576 5576 5576 5576 5576 5577 5577 5578 5578
5590 5590 5588 5587 5589 5589 5587 5587 5585 5585 5586 5586 5587 5587 5586 5586 5586 5585 5584 5583 5583 5583 5582 5581 5580 5579 5579 5579 5579 5579 5577 5576 5574 5574 5573 5573 5573 5573 5573 5574 5575 5575
5586 5586 5585 5584 5584 5584 5584 5584 5581 5580 5580 5580 5582 5583 5583 5583 5582 5580 5579 5579 5579 5579 5578 5576 5575 5575 5576 5576 5576 5576 5575 5573 5572 5571 5572 5571 5571 5571 5571 5571 5572 5572
5584 5583 5582 5580 5580 5581 5581 5579 5577 5575 5574 5574 5576 5578 5578 5579 5578 5576 5575 5575 5576 5576 5575 5573 5572 5572 5571 5571 5572 5572 5571 5571 5570 5570 5570 5570 5570 5570 5570 5569 5569 5569
5580 5579 5578 5577 5577 5578 5577 5575 5573 5572 5571 5571 5572 5573 5574 5574 5573 5572 5572 5572 5573 5573 5572 5572 5571 5569 5568 5567 5567 5567 5567 5567 5568 5568 5568 5568 5569 5569 5569 5568 5567 5566
5576 5575 5575 5574 5573 5574 5573 5570 5569 5570 5569 5570 5570 5570 5570 5569 5568 5569 5570 5570 5571 5571 5569 5569 5568 5566 5564 5564 5563 5562 5562 5564 5565 5566 5566 5567 5567 5567 5567 5566 5565 5564
5572 5571 5570 5568 5567 5569 5569 5567 5566 5567 5566 5567 5567 5566 5566 5565 5565 5566 5568 5568 5569 5568 5566 5566 5565 5562 5561 5560 5560 5559 5559 5559 5561 5562 5563 5563 5564 5564 5564 5564 5563 5563
5565 5565 5565 5564 5563 5564 5565 5564 5563 5562 5562 5562 5563 5563 5562 5562 5563 5565 5565 5565 5565 5564 5564 5563 5561 5558 5556 5557 5557 5556 5556 5556 5558 5558 5559 5560 5561 5561 5561 5561 5561 5561
5556 5557 5558 5559 5559 5559 5559 5559 5558 5557 5558 5558 5560 5560 5559 5560 5561 5562 5561 5561 5561 5560 5560 5560 5557 5554 5553 5553 5553 5552 5553 5554 5555 5556 5556 5557 5558 5557 5558 5558 5558 5559
5548 5550 5552 5553 5554 5555 5554 5554 5553 5553 5553 5555 5556 5557 5557 5557 5557 5557 5557 5557 5557 5557 5556 5556 5554 5551 5550 5551 5550 5549 5551 5553 5554 5554 5554 5554 5555 5555 5555 5555 5556 5556
5540 5542 5544 5545 5546 5547 5547 5548 5548 5548 5548 5550 5553 5552 5552 5552 5552 5552 5552 5551 5551 5551 5550 5550 5550 5548 5546 5547 5546 5545 5546 5548 5549 5549 5550 5551 5551 5552 5552 5552 5553 5552
5532 5533 5535 5537 5538 5539 5540 5542 5542 5542 5541 5543 5545 5547 5547 5547 5547 5548 5546 5545 5545 5544 5542 5544 5546 5544 5542 5541 5540 5539 5539 5541 5543 5544 5546 5547 5547 5548 5549 5549 5549 5549
5524 5526 5527 5529 5530 5531 5533 5534 5535 5536 5536 5536 5536 5539 5540 5540 5540 5541 5541 5539 5539 5539 5539 5540 5542 5540 5536 5535 5534 5533 5533 5535 5538 5540 5542 5544 5545 5545 5546 5546 5546 5545